This is the latest recevied weather packets stored in our database for station/object VA3XLT-1. If no packets are shown the sender has not sent any weather packets the latest 1 day(s).
| Time | Temp. | Humidity | Pressure | Rain* | Wind** | Luminosity | Snow |
|---|---|---|---|---|---|---|---|
| 1778079755 | 10° C | 69% | 1011.9 hPa | 0 mm | - | - | - |
| 1778079455 | 9.44° C | 68% | 1012 hPa | 0 mm | - | - | - |
| 1778079155 | 10° C | 71% | 1011.9 hPa | 0 mm | - | - | - |
| 1778078855 | 9.44° C | 74% | 1011.7 hPa | 0 mm | - | - | - |
| 1778078555 | 8.89° C | 75% | 1011.7 hPa | 0 mm | - | - | - |
| 1778078255 | 8.89° C | 73% | 1011.6 hPa | 0 mm | - | - | - |
| 1778077955 | 8.89° C | 73% | 1011.6 hPa | 0 mm | - | - | - |
| 1778077655 | 8.89° C | 75% | 1011.5 hPa | 0 mm | - | - | - |
| 1778077355 | 8.89° C | 76% | 1011.6 hPa | 0 mm | - | - | - |
| 1778076755 | 8.33° C | 77% | 1011.5 hPa | 0 mm | - | - | - |
| 1778076455 | 7.78° C | 78% | 1011.4 hPa | 0 mm | - | - | - |
| 1778076155 | 8.33° C | 75% | 1011.3 hPa | 0 mm | - | - | - |
| 1778075855 | 8.33° C | 78% | 1011.2 hPa | 0 mm | - | - | - |
| 1778075555 | 7.78° C | 80% | 1011.2 hPa | 0 mm | - | - | - |
| 1778074955 | 8.33° C | 80% | 1011.1 hPa | 0 mm | - | - | - |
| 1778074655 | 7.78° C | 79% | 1011 hPa | 0 mm | - | - | - |
| 1778074355 | 7.78° C | 78% | 1010.8 hPa | 0 mm | - | - | - |
| 1778073455 | 7.22° C | 81% | 1010.7 hPa | 0 mm | - | - | - |
| 1778073155 | 7.78° C | 83% | 1010.6 hPa | 0 mm | - | - | - |
| 1778072555 | 7.22° C | 81% | 1010.6 hPa | 0 mm | - | - | - |
| 1778072255 | 7.78° C | 82% | 1010.5 hPa | 0 mm | - | - | - |
| 1778071955 | 7.22° C | 84% | 1010.6 hPa | 0 mm | - | - | - |
| 1778071355 | 6.67° C | 87% | 1010.5 hPa | 0 mm | - | - | - |
| 1778071055 | 6.67° C | 85% | 1010.5 hPa | 0 mm | - | - | - |
| 1778069855 | 6.67° C | 89% | 1010.4 hPa | 0 mm | - | - | - |
* Rain latest hour (hover to see other rain measurements)
** Current wind speed in m/s (hover to see current wind gust speed)